Tracking 35331 objects as of 16-Sep-2026
HD Live streaming from Space Station
objects crossing your sky now

SALYUT 7 DEB


SALYUT 7 DEB is no longer on orbit


NORAD ID: 15177
Int'l Code: 1982-033CG
Launch date: April 19, 1982
Source: Commonwealth of Independent States (former USSR) (CIS)
Launch site: TYURATAM MISSILE AND SPACE COMPLEX (TTMTR)
Decay date: 1984-09-22

Note: This is SATELLITE DEBRIS
Your satellite tracking list
Your tracking list is empty




NASA's NSSDC Master Catalog

Two Line Element Set (TLE):
1 15177U 82033 CG 84266.44466871  .05552531 +11709-4 +31716-2 0  9991
2 15177 051.5800 224.7752 0004615 227.5883 134.1388 16.18288976140359
Source of the keplerian elements: AFSPC